Regional Weather Roundup
Issued by NWS

Home | Current Version | Previous Version | Graphics & Text | Print | Product List | Glossary On
Versions: 1 2 3 4 5 6 7 8 9 10 11 12 13 14 15 16 17 18 19 20 21 22 23 24 25 26 27 28 29 30 31 32 33 34 35 36 37 38 39 40 41 42 43 44 45 46 47 48 49 50
000
ASUS44 KMEG 290310
RWRTN
TENNESSEE HOURLY STATE WEATHER ROUNDUP
NATIONAL WEATHER SERVICE MEMPHIS TN
900 PM CST SUN DEC 28 2014

TNZ002-004-019-021-049-052-054-088>092-290400-
WEST TENNESSEE

CITY           SKY/WX    TMP DP  RH WIND       PRES   REMARKS
MEMPHIS INTL   LGT RAIN  38  35  89 N9        30.17F WCI  31
NWS MEMPHIS      N/A     38 N/A N/A MISG        N/A
JACKSON        CLOUDY    37  35  92 N10       30.17F FOG     WCI  30
DYERSBURG      CLOUDY    37  23  56 NE5       30.22R WCI  34
UNION CITY     CLOUDY    34  34 100 N6        30.19S WCI  29
PARIS          CLOUDY    34  30  86 N6        30.18S WCI  29
HUNTINGDON     CLOUDY    34  32  92 N3        30.18S
LEXINGTON      CLOUDY    37  37 100 N3        30.15S
SAVANNAH       CLOUDY    39  39 100 CALM      30.15F
$$

TNZ008-025-027-028-033-062-065-066-290400-
NORTH MIDDLE TENNESSEE

CITY           SKY/WX    TMP DP  RH WIND       PRES   REMARKS
NASHVILLE      CLOUDY    38  36  92 N7        30.18R WCI  33
CLARKSVILLE    CLOUDY    35  32  88 NE5       30.18F WCI  31
SMYRNA         CLOUDY    39  38  97 N7        30.18R WCI  34
COOKEVILLE     CLOUDY    41  41 100 N3        30.12S
CROSSVILLE     LGT RAIN  43  40  89 NE5       30.10F
$$

TNZ061-075-076-078-094-096-097-290400-
SOUTH MIDDLE TENNESSEE

CITY           SKY/WX    TMP DP  RH WIND       PRES   REMARKS
FAYETTEVILLE   CLOUDY    39  37  93 N7        30.11F WCI  34
TULLAHOMA      CLOUDY    39  39 100 CALM      30.11F
WINCHESTER     CLOUDY    43  41  93 N3        30.12S
MCMINNVILLE    CLOUDY    41  41 100 CALM      30.12S
COLUMBIA       CLOUDY   N/A N/A N/A NE5       30.14R
SHELBYVILLE    CLOUDY    39  39 100 N6        30.14S WCI  35
$$

TNZ017-018-042-046-047-290400-
NORTHEAST TENNESSEE

CITY           SKY/WX    TMP DP  RH WIND       PRES   REMARKS
TRI CITIES     FOG       48  48 100 CALM      30.11R VSB 1/2
ELIZABETHTON   CLOUDY    46  46 100 CALM      30.11S FOG
$$

TNZ012-013-036-069-073-074-290400-
CENTRAL EAST TENNESSEE

CITY           SKY/WX    TMP DP  RH WIND       PRES   REMARKS
KNOXVILLE      CLOUDY    50  49  96 CALM      30.10F FOG
OAK RIDGE      LGT RAIN  48  46  93 NE3       30.12S
GATLINBURG     CLOUDY    48  48 100 CALM      30.10S
MORRISTOWN     CLOUDY    48  48 100 CALM      30.11S VSB 1/4
$$

TNZ083-085-099-290400-
SOUTHEAST TENNESSEE

CITY           SKY/WX    TMP DP  RH WIND       PRES   REMARKS
CHATTANOOGA    LGT RAIN  51  47  86 N9        30.10F
$$

SKY/WX REPORTED AS FAIR MEANS FEW OR NO CLOUDS BELOW
12 THOUSAND FEET.



USA.gov is the U.S. government's official web portal to all federal, state and local government web resources and services.